CFE8745 EGLC-LFBE

Flight info

Callsign CFE8745
Flight time 1h 31m
Altitude 25000
Route SOQQA M87 EKNIV M91 LYD UM189 WAFFU/N0386F320 DCT SITET/N0393F330 UN859 SOPIL DCT BALAN DCT LMG A34 BUGUS
Aircraft E190/M-SDE3GILORVW/S

Departure

Time 2026-04-30 12:36
Airport London City Airport (EGLC)

Arrival

Time 2026-04-30 14:07
Airport Bergerac Dordogne-Périgord airport (LFBE)
Time Latitude Longitude Altitude Speed Heading
2026-04-30 12:07 51.50435 0.04823 26 ft 0 kts 313°
2026-04-30 12:17 51.50435 0.04824 24 ft 0 kts 313°
2026-04-30 12:34 51.50448 0.04803 46 ft 6 kts 314°
2026-04-30 12:34 51.50469 0.04728 25 ft 10 kts 276°
2026-04-30 12:34 51.50474 0.04603 24 ft 13 kts 273°
2026-04-30 12:34 51.50492 0.04458 26 ft 14 kts 315°
2026-04-30 12:35 51.50555 0.04492 24 ft 5 kts 91°
2026-04-30 12:35 51.50552 0.04579 24 ft 33 kts 93°
2026-04-30 12:35 51.50527 0.05357 24 ft 104 kts 93°
2026-04-30 12:35 51.50485 0.06784 281 ft 139 kts 91°
2026-04-30 12:36 51.50450 0.08418 998 ft 153 kts 92°
2026-04-30 12:36 51.50570 0.10175 1440 ft 160 kts 75°
2026-04-30 12:36 51.51155 0.11725 1870 ft 171 kts 49°
2026-04-30 12:36 51.52120 0.12841 2384 ft 177 kts 40°
2026-04-30 12:37 51.53184 0.13938 2731 ft 183 kts 40°
2026-04-30 12:37 51.54268 0.14995 2960 ft 183 kts 37°
2026-04-30 12:37 51.55362 0.16086 3064 ft 185 kts 44°
2026-04-30 12:37 51.56230 0.17528 3071 ft 174 kts 64°
2026-04-30 12:38 51.56672 0.19279 3096 ft 166 kts 85°
2026-04-30 12:38 51.56673 0.21087 3148 ft 159 kts 104°
2026-04-30 12:38 51.56356 0.22918 3183 ft 185 kts 109°
2026-04-30 12:38 51.56116 0.25051 2790 ft 203 kts 91°
2026-04-30 12:39 51.56435 0.27152 2932 ft 185 kts 68°
2026-04-30 12:39 51.57057 0.28870 3270 ft 181 kts 68°
2026-04-30 12:39 51.57713 0.30859 3421 ft 216 kts 68°
2026-04-30 12:39 51.58479 0.32998 3511 ft 221 kts 65°
2026-04-30 12:40 51.59274 0.35075 3454 ft 215 kts 65°
2026-04-30 12:40 51.60051 0.37093 3444 ft 209 kts 65°
2026-04-30 12:40 51.60638 0.39291 3642 ft 225 kts 85°
2026-04-30 12:40 51.60588 0.41892 4242 ft 241 kts 103°
2026-04-30 12:41 51.60313 0.44588 5231 ft 248 kts 102°
2026-04-30 12:41 51.60044 0.47359 6236 ft 253 kts 103°
2026-04-30 12:41 51.59750 0.50116 7229 ft 254 kts 103°
2026-04-30 12:41 51.59434 0.52910 8238 ft 255 kts 103°
2026-04-30 12:42 51.58863 0.55606 9128 ft 257 kts 123°
2026-04-30 12:42 51.57607 0.57655 10056 ft 262 kts 145°
2026-04-30 12:42 51.55897 0.58875 10611 ft 283 kts 163°
2026-04-30 12:42 51.53907 0.59536 11166 ft 301 kts 167°
2026-04-30 12:43 51.51786 0.60119 11693 ft 318 kts 168°
2026-04-30 12:43 51.49537 0.60693 12385 ft 328 kts 168°
2026-04-30 12:43 51.47287 0.61248 13260 ft 334 kts 169°
2026-04-30 12:43 51.44971 0.61786 14206 ft 339 kts 170°
2026-04-30 12:44 51.42627 0.62285 15159 ft 342 kts 171°
2026-04-30 12:44 51.40270 0.62884 16089 ft 345 kts 164°
2026-04-30 12:44 51.37957 0.63980 16979 ft 347 kts 160°
2026-04-30 12:44 51.35649 0.65206 17802 ft 353 kts 161°
2026-04-30 12:45 51.33307 0.66439 18600 ft 357 kts 161°
2026-04-30 12:45 51.30930 0.67691 19293 ft 362 kts 160°
2026-04-30 12:45 51.28524 0.68956 20039 ft 365 kts 160°
2026-04-30 12:45 51.26104 0.70228 20797 ft 368 kts 160°
2026-04-30 12:46 51.23661 0.71526 21510 ft 371 kts 158°
2026-04-30 12:46 51.21283 0.73145 22149 ft 373 kts 154°
2026-04-30 12:46 51.18906 0.74846 22764 ft 376 kts 154°
2026-04-30 12:46 51.16497 0.76527 23396 ft 379 kts 154°
2026-04-30 12:47 51.14070 0.78208 23976 ft 382 kts 154°
2026-04-30 12:47 51.11628 0.79888 24476 ft 384 kts 154°
2026-04-30 12:47 51.09169 0.81573 24956 ft 386 kts 155°
2026-04-30 12:47 51.06697 0.83260 25354 ft 384 kts 155°
2026-04-30 12:48 51.04299 0.84879 25274 ft 364 kts 156°
2026-04-30 12:48 51.01913 0.85906 25254 ft 347 kts 169°
2026-04-30 12:48 50.99543 0.85980 25246 ft 336 kts 182°
2026-04-30 12:48 50.97306 0.85177 25234 ft 336 kts 195°
2026-04-30 12:49 50.95174 0.83481 25237 ft 343 kts 209°
2026-04-30 12:49 50.93274 0.81151 25247 ft 347 kts 214°
2026-04-30 12:49 50.91421 0.78701 25258 ft 347 kts 214°
2026-04-30 12:49 50.89590 0.76281 25263 ft 347 kts 214°
2026-04-30 12:50 50.87735 0.73828 25255 ft 347 kts 214°
2026-04-30 12:50 50.85880 0.71379 25262 ft 348 kts 214°
2026-04-30 12:50 50.84019 0.68923 25264 ft 348 kts 214°
2026-04-30 12:50 50.82160 0.66471 25236 ft 348 kts 214°
2026-04-30 12:51 50.80299 0.64012 25208 ft 348 kts 214°
2026-04-30 12:51 50.78444 0.61568 25211 ft 347 kts 214°
2026-04-30 12:51 50.76585 0.59127 25206 ft 347 kts 214°
2026-04-30 12:51 50.74729 0.56690 25206 ft 347 kts 214°
2026-04-30 12:52 50.72871 0.54252 25203 ft 348 kts 214°
2026-04-30 12:52 50.71008 0.51813 25206 ft 348 kts 214°
2026-04-30 12:52 50.69147 0.49376 25202 ft 348 kts 214°
2026-04-30 12:52 50.67287 0.46945 25202 ft 348 kts 214°
2026-04-30 12:53 50.65428 0.44515 25197 ft 346 kts 213°
2026-04-30 12:53 50.63576 0.42098 25192 ft 346 kts 213°
2026-04-30 12:53 50.61724 0.39683 25204 ft 345 kts 213°
2026-04-30 12:53 50.59872 0.37275 25196 ft 345 kts 213°
2026-04-30 12:54 50.57954 0.35040 25199 ft 340 kts 204°
2026-04-30 12:54 50.55865 0.33360 25203 ft 337 kts 199°
2026-04-30 12:54 50.53740 0.31803 25187 ft 337 kts 199°
2026-04-30 12:54 50.51618 0.30243 25189 ft 337 kts 199°
2026-04-30 12:55 50.49499 0.28687 25179 ft 337 kts 199°
2026-04-30 12:55 50.47376 0.27126 25181 ft 337 kts 199°
2026-04-30 12:55 50.45254 0.25569 25180 ft 337 kts 199°
2026-04-30 12:55 50.43132 0.24009 25181 ft 337 kts 199°
2026-04-30 12:56 50.41011 0.22454 25173 ft 337 kts 199°
2026-04-30 12:56 50.38893 0.20900 25175 ft 336 kts 199°
2026-04-30 12:56 50.36775 0.19349 25175 ft 336 kts 199°
2026-04-30 12:56 50.34658 0.17799 25173 ft 336 kts 199°
2026-04-30 12:57 50.32540 0.16250 25164 ft 336 kts 199°
2026-04-30 12:57 50.30421 0.14702 25164 ft 336 kts 199°
2026-04-30 12:57 50.28303 0.13156 25164 ft 336 kts 199°
2026-04-30 12:57 50.26186 0.11612 25165 ft 336 kts 199°
2026-04-30 12:58 50.24071 0.10074 25365 ft 332 kts 199°
2026-04-30 12:58 50.22013 0.08573 26268 ft 323 kts 199°
2026-04-30 12:58 50.19984 0.07095 26959 ft 321 kts 199°
2026-04-30 12:58 50.17964 0.05626 27580 ft 320 kts 199°
2026-04-30 12:59 50.15945 0.04160 28151 ft 320 kts 199°
2026-04-30 12:59 50.13927 0.02696 28708 ft 320 kts 199°
2026-04-30 12:59 50.11877 0.01403 29234 ft 316 kts 190°
2026-04-30 12:59 50.09739 0.00820 29717 ft 310 kts 178°
2026-04-30 13:00 50.07602 0.00959 30205 ft 306 kts 167°
2026-04-30 13:00 50.05522 0.01649 30597 ft 305 kts 163°
2026-04-30 13:00 50.03451 0.02407 30986 ft 306 kts 163°
2026-04-30 13:00 50.01375 0.03179 31356 ft 308 kts 163°
2026-04-30 13:01 49.99290 0.03968 31717 ft 309 kts 163°
2026-04-30 13:01 49.97225 0.04759 32082 ft 310 kts 163°
2026-04-30 13:01 49.95131 0.05568 32420 ft 311 kts 163°
2026-04-30 13:01 49.93032 0.06383 32799 ft 311 kts 163°
2026-04-30 13:02 49.90944 0.07197 33202 ft 305 kts 163°
2026-04-30 13:02 49.88892 0.08003 33197 ft 304 kts 162°
2026-04-30 13:02 49.84779 0.09661 33149 ft 306 kts 163°
2026-04-30 13:03 49.80647 0.11315 33148 ft 307 kts 163°
2026-04-30 13:03 49.76506 0.12967 33151 ft 307 kts 163°
2026-04-30 13:04 49.72355 0.14621 33157 ft 310 kts 163°
2026-04-30 13:04 49.68177 0.16281 33157 ft 310 kts 163°
2026-04-30 13:05 49.64009 0.17972 33162 ft 310 kts 163°
2026-04-30 13:06 49.57755 0.20520 33129 ft 310 kts 163°
2026-04-30 13:06 49.53585 0.22211 33124 ft 310 kts 163°
2026-04-30 13:07 49.49381 0.23916 33146 ft 315 kts 163°
2026-04-30 13:07 49.45143 0.25627 33127 ft 315 kts 163°
2026-04-30 13:08 49.40911 0.27333 33132 ft 314 kts 163°
2026-04-30 13:08 49.36683 0.29036 33131 ft 314 kts 163°
2026-04-30 13:09 49.32451 0.30737 33129 ft 314 kts 163°
2026-04-30 13:09 49.28211 0.32481 33132 ft 318 kts 163°
2026-04-30 13:10 49.23955 0.34287 33124 ft 318 kts 163°
2026-04-30 13:10 49.19700 0.36084 33097 ft 317 kts 163°
2026-04-30 13:11 49.15457 0.37869 33100 ft 316 kts 163°
2026-04-30 13:11 49.11231 0.39642 33097 ft 318 kts 163°
2026-04-30 13:12 49.06972 0.41427 33090 ft 319 kts 163°
2026-04-30 13:12 49.02656 0.43233 33095 ft 323 kts 163°
2026-04-30 13:13 48.96228 0.45910 33091 ft 315 kts 163°
2026-04-30 13:14 48.89866 0.48560 33087 ft 316 kts 163°
2026-04-30 13:14 48.83504 0.51200 33089 ft 316 kts 163°
2026-04-30 13:15 48.77119 0.53820 33100 ft 317 kts 164°
2026-04-30 13:16 48.73567 0.55206 33094 ft 317 kts 164°
2026-04-30 13:16 48.69289 0.56878 33096 ft 317 kts 163°
2026-04-30 13:17 48.62877 0.59386 33086 ft 320 kts 164°
2026-04-30 13:18 48.56452 0.61892 33080 ft 319 kts 164°
2026-04-30 13:18 48.49981 0.64434 33082 ft 319 kts 163°
2026-04-30 13:19 48.45666 0.66204 33084 ft 323 kts 163°
2026-04-30 13:19 48.41344 0.67963 33081 ft 324 kts 164°
2026-04-30 13:20 48.37025 0.69713 33078 ft 322 kts 163°
2026-04-30 13:20 48.32703 0.71466 33079 ft 321 kts 163°
2026-04-30 13:21 48.28418 0.73196 33083 ft 318 kts 163°
2026-04-30 13:22 48.21941 0.75786 33091 ft 321 kts 164°
2026-04-30 13:22 48.15432 0.78343 33078 ft 324 kts 164°
2026-04-30 13:23 48.08920 0.80899 33068 ft 321 kts 164°
2026-04-30 13:24 48.00250 0.84290 33073 ft 322 kts 164°
2026-04-30 13:25 47.91547 0.87686 33065 ft 324 kts 164°
2026-04-30 13:26 47.80646 0.91921 33068 ft 323 kts 164°
2026-04-30 13:28 47.69780 0.96124 33072 ft 323 kts 164°
2026-04-30 13:28 47.63257 0.98639 33069 ft 323 kts 164°
2026-04-30 13:29 47.54581 1.01970 33076 ft 320 kts 164°
2026-04-30 13:31 47.43780 1.06063 33076 ft 321 kts 168°
2026-04-30 13:31 47.37046 1.06317 33074 ft 323 kts 179°
2026-04-30 13:32 47.32573 1.06225 33085 ft 321 kts 179°
2026-04-30 13:33 47.23660 1.06044 33085 ft 321 kts 179°
2026-04-30 13:34 47.16944 1.05909 33087 ft 321 kts 179°
2026-04-30 13:35 47.08007 1.05729 33084 ft 321 kts 178°
2026-04-30 13:36 46.99071 1.05481 33088 ft 321 kts 180°
2026-04-30 13:36 46.92363 1.05161 33089 ft 322 kts 179°
2026-04-30 13:37 46.85652 1.04856 33094 ft 322 kts 179°
2026-04-30 13:38 46.78941 1.04553 33093 ft 322 kts 179°
2026-04-30 13:39 46.69996 1.04155 33093 ft 322 kts 179°
2026-04-30 13:40 46.63282 1.03854 33092 ft 322 kts 179°
2026-04-30 13:40 46.58806 1.03656 33099 ft 322 kts 179°
2026-04-30 13:41 46.54338 1.03458 33091 ft 320 kts 179°
2026-04-30 13:41 46.49892 1.03280 33101 ft 319 kts 178°
2026-04-30 13:42 46.45473 1.03236 33105 ft 320 kts 178°
2026-04-30 13:42 46.38804 1.03151 33104 ft 319 kts 178°
2026-04-30 13:43 46.34362 1.03092 33102 ft 319 kts 178°
2026-04-30 13:43 46.29927 1.03033 33113 ft 322 kts 178°
2026-04-30 13:44 46.25301 1.02971 33173 ft 343 kts 178°
2026-04-30 13:44 46.22874 1.02937 33156 ft 355 kts 178°
2026-04-30 13:44 46.20363 1.02904 33116 ft 367 kts 178°
2026-04-30 13:45 46.15139 1.02830 33120 ft 381 kts 178°
2026-04-30 13:45 46.12476 1.02791 33116 ft 383 kts 178°
2026-04-30 13:46 46.07120 1.02715 33100 ft 386 kts 178°
2026-04-30 13:46 46.04410 1.02678 32733 ft 390 kts 178°
2026-04-30 13:46 46.01669 1.02642 32531 ft 402 kts 178°
2026-04-30 13:46 45.98793 1.02608 31933 ft 426 kts 178°
2026-04-30 13:47 45.95770 1.02569 31370 ft 441 kts 178°
2026-04-30 13:47 45.92679 1.02526 30745 ft 447 kts 178°
2026-04-30 13:47 45.89546 1.02485 30100 ft 452 kts 178°
2026-04-30 13:47 45.86401 1.02446 29533 ft 453 kts 178°
2026-04-30 13:48 45.83233 1.02405 28898 ft 456 kts 178°
2026-04-30 13:48 45.80070 1.02353 28298 ft 454 kts 179°
2026-04-30 13:48 45.76931 1.02143 27706 ft 450 kts 181°
2026-04-30 13:48 45.73823 1.01880 27112 ft 444 kts 181°
2026-04-30 13:49 45.70751 1.01644 26522 ft 441 kts 181°
2026-04-30 13:49 45.67701 1.01416 25938 ft 437 kts 181°
2026-04-30 13:49 45.64676 1.01196 25361 ft 433 kts 181°
2026-04-30 13:49 45.61679 1.00978 24775 ft 430 kts 181°
2026-04-30 13:50 45.58706 1.00764 24218 ft 426 kts 181°
2026-04-30 13:50 45.52827 1.00344 23083 ft 418 kts 181°
2026-04-30 13:50 45.49932 1.00134 22529 ft 415 kts 182°
2026-04-30 13:51 45.47061 0.99888 21980 ft 412 kts 182°
2026-04-30 13:51 45.44208 0.99646 21438 ft 409 kts 182°
2026-04-30 13:51 45.41414 0.99410 20911 ft 406 kts 182°
2026-04-30 13:51 45.38609 0.99175 20373 ft 402 kts 182°
2026-04-30 13:52 45.35824 0.98943 19840 ft 399 kts 182°
2026-04-30 13:52 45.33068 0.98713 19313 ft 395 kts 182°
2026-04-30 13:52 45.30298 0.98484 18789 ft 392 kts 182°
2026-04-30 13:52 45.27585 0.98258 18244 ft 389 kts 182°
2026-04-30 13:53 45.24897 0.98035 17755 ft 385 kts 182°
2026-04-30 13:53 45.22230 0.97812 17242 ft 383 kts 182°
2026-04-30 13:53 45.19581 0.97593 16739 ft 380 kts 182°
2026-04-30 13:53 45.16943 0.97376 16225 ft 377 kts 182°
2026-04-30 13:54 45.14334 0.97161 15733 ft 374 kts 183°
2026-04-30 13:54 45.11780 0.96949 15244 ft 372 kts 183°
2026-04-30 13:54 45.09203 0.96745 14752 ft 369 kts 182°
2026-04-30 13:54 45.06647 0.96556 14264 ft 367 kts 182°
2026-04-30 13:55 45.04105 0.96364 13743 ft 365 kts 182°
2026-04-30 13:55 45.01588 0.96125 13252 ft 361 kts 188°
2026-04-30 13:55 44.99239 0.94948 12822 ft 361 kts 211°
2026-04-30 13:55 44.97506 0.92510 12554 ft 347 kts 236°
2026-04-30 13:56 44.96705 0.89369 12096 ft 340 kts 261°
2026-04-30 13:56 44.96832 0.86076 11670 ft 332 kts 276°
2026-04-30 13:56 44.97213 0.82902 11227 ft 323 kts 276°
2026-04-30 13:56 44.97354 0.79760 10833 ft 311 kts 267°
2026-04-30 13:57 44.97266 0.76782 10424 ft 304 kts 264°
2026-04-30 13:57 44.97120 0.73798 10012 ft 298 kts 263°
2026-04-30 13:57 44.96909 0.70920 9622 ft 291 kts 261°
2026-04-30 13:57 44.96658 0.68155 9185 ft 287 kts 261°
2026-04-30 13:58 44.96387 0.65364 8734 ft 285 kts 260°
2026-04-30 13:58 44.95797 0.59933 7998 ft 276 kts 259°
2026-04-30 13:58 44.95497 0.57279 7633 ft 272 kts 259°
2026-04-30 13:59 44.95193 0.54660 7276 ft 269 kts 258°
2026-04-30 13:59 44.94893 0.52069 6924 ft 266 kts 258°
2026-04-30 13:59 44.94591 0.49502 6562 ft 264 kts 259°
2026-04-30 13:59 44.94293 0.46955 6212 ft 262 kts 259°
2026-04-30 14:00 44.93996 0.44434 5864 ft 258 kts 259°
2026-04-30 14:00 44.93408 0.39481 5196 ft 254 kts 259°
2026-04-30 14:00 44.93120 0.37050 4832 ft 245 kts 258°
2026-04-30 14:01 44.92843 0.34742 4494 ft 231 kts 258°
2026-04-30 14:01 44.92543 0.33311 4268 ft 220 kts 240°
2026-04-30 14:01 44.91545 0.31827 3878 ft 210 kts 206°
2026-04-30 14:01 44.90155 0.31465 3544 ft 203 kts 176°
2026-04-30 14:02 44.88772 0.31580 3398 ft 194 kts 178°
2026-04-30 14:02 44.87457 0.31662 3223 ft 186 kts 177°
2026-04-30 14:02 44.86167 0.31781 2947 ft 185 kts 169°
2026-04-30 14:02 44.85005 0.32501 2623 ft 185 kts 139°
2026-04-30 14:03 44.84173 0.33856 2458 ft 181 kts 131°
2026-04-30 14:03 44.83470 0.35344 2154 ft 185 kts 114°
2026-04-30 14:03 44.83246 0.37129 1998 ft 186 kts 88°
2026-04-30 14:03 44.83462 0.38867 1965 ft 180 kts 90°
2026-04-30 14:04 44.83274 0.40560 1899 ft 158 kts 105°
2026-04-30 14:04 44.83034 0.41823 2099 ft 125 kts 104°
2026-04-30 14:04 44.82900 0.43098 1702 ft 131 kts 97°
2026-04-30 14:04 44.82856 0.44328 1524 ft 119 kts 95°
2026-04-30 14:05 44.82798 0.45465 1285 ft 117 kts 97°
2026-04-30 14:05 44.82737 0.46650 1028 ft 123 kts 95°
2026-04-30 14:05 44.82670 0.47852 737 ft 120 kts 98°
2026-04-30 14:05 44.82604 0.49006 520 ft 118 kts 96°
2026-04-30 14:06 44.82544 0.50154 303 ft 116 kts 98°
2026-04-30 14:06 44.82445 0.52034 177 ft 57 kts 95°
2026-04-30 14:07 44.82429 0.52354 177 ft 6 kts 275°
2026-04-30 14:07 44.82437 0.52221 177 ft 21 kts 275°
2026-04-30 14:07 44.82385 0.52050 177 ft 22 kts 192°
2026-04-30 14:08 44.82288 0.51910 176 ft 12 kts 275°
2026-04-30 14:08 44.82295 0.51781 176 ft 13 kts 274°
2026-04-30 14:08 44.82263 0.51638 176 ft 5 kts 202°
2026-04-30 14:09 44.82261 0.51604 176 ft 4 kts 291°
2026-04-30 14:09 44.82269 0.51587 176 ft 0 kts 311°